NOAA 16 DEB

Satellite information

Favourite Embed

Satellite Type and Status

DEBRISIN ORBIT

Key statistics

Satellite NOAA 16 DEB at a glance.

Uptime

9054

Days in orbit

Revolutions

≈ 14.4

Per day

Orbit

SSO

Sun Synchronous Orbit

Inclination

99.0

Latest

Satellite identification and parameters

Extended collection of information and parameters for NOAA 16 DEB.

Object identification

Identified? True

Debris? True

Object name: NOAA 16 DEB

International designator: 2000-055RB

Object number (NORAD): 42359

Object ID (CCSDS): 42359

Country: UNITED STATES OF AMERICA (US)

Current information (Y/N): Y

RCS size: SMALL

Orbital parameters

Period: 99.904 minutes

Inclination: 98.9605 deg

SMA: 7132.078 km

Apoapsis: 766.933 km

Periapsis: 740.952 km

RAAN: 335.9062 deg

Eccentricy: 0.0018214

Argument of periapsis: 144.9946 deg

Mean anomaly: 215.2443 deg

Mean motion: 14.41380593 rev/day

Mean motion (dot): 0.00004252 rev/day2

B* drag term: 0.0013242 1/REarth

Two-line elements (TLE)

Creation date: July 3, 2025, 2:56 p.m.

Reference frame: TEME

Reference center: EARTH

Epoch: June 30, 2025, 4:52 a.m. UTC

TLE line 0: 0 NOAA 16 DEB

TLE line 1: 1 42359U 00055RB 25181.20286525 .00004252 00000-0 13242-2 0 9997

TLE line 2: 2 42359 98.9605 335.9062 0018214 144.9946 215.2443 14.41380593479608

Live tracking on map

Real-time ground track for satellite NOAA 16 DEB.

In-orbit conjunctions

A list of the most updated potential collisions computed for object NOAA 16 DEB.

Target Orbit TCA Probability of collision Miss distance Type
CZ-6A DEB LEO 2024-12-15 09:53:38 0.0002542494 307.0 (m) DEBRIS

Associated space launch

The NOAA K, L and M POES satellites begin the fifth generation of improved environmental monitoring in support of NOAA missions. The instrument payload has significant improvements and additions/deletions. The instrument changes have effected the spacecraft subsystems and data formats.

NOAA 16 DEB was lifted into orbit during the mission ‘Titan II SLV | NOAA 16’, on board a Titan II SLV space rocket.

The launch took place on Sept. 21, 2000, 10:22 a.m. from Space Launch Complex 4W.

For more information about the launch, click the button.

Launch to space Titan II SLV | NOAA 16
Titan II SLV | NOAA 16

Agency: N/A

Status: Launch Successful

Launch date: Sept. 21, 2000, 10:22 a.m. UTC

Rocket: Titan II SLV

Launch pad: Space Launch Complex 4W

Location: Vandenberg SFB, CA, USA

...

Latest news about this satellite

There are no fresh news available about this satellite. Check back as we update our databases every day.


Newsletter sign-up

Weekly statistics, charts and insights to help you stay on top of the space industry.